Medicine Lodge, KS

6:31 AM CDT on May 30, 2017 (GMT -0500)
Medicine Lodge

Weather History for KP28 - August, 2013

Change the Weather History Date:

Saturday, August 3, 2013

  Actual Average Record
Temperature  
Mean Temperature 85 °F 82 °F  
Max Temperature 94 °F 95 °F 111 °F (1923)
Min Temperature 75 °F 70 °F 52 °F (1974)
Degree Days  
Heating Degree Days 0 0  
Month to date heating degree days 0 0  
Since 1 June heating degree days 4 3  
Since 1 July heating degree days 0 0  
Cooling Degree Days 20 17  
Month to date cooling degree days 55 51  
Year to date cooling degree days 1077 1088  
Since 1 June cooling degree days 934 932  
Growing Degree Days 33 (Base 50)    
Moisture  
Dew Point 70 °F    
Average Humidity 69    
Maximum Humidity 94    
Minimum Humidity 44    
Precipitation  
Precipitation 0.05 in 0.09 in 2.30 in (1927)
Month to date precipitation 0.18 0.25  
Year to date precipitation 15.53 17.48  
Snow  
Snow 0.00 in 0.00 in - ()
Month to date snowfall 0.0 0.0  
Since 1 June snowfall 0.0 0.0  
Since 1 July snowfall 0.0 0.0  
Snow Depth 0.00 in    
Sea Level Pressure  
Sea Level Pressure 29.90 in    
Wind  
Wind Speed 11 mph (ESE)    
Max Wind Speed 22 mph    
Max Gust Speed 29 mph    
T = Trace of Precipitation, MM = Missing Value Source: NWS Daily Summary

Daily Weather History Graph

Daily Weather History Graph

Search for Another Location

Airport or City:

Trip Planner

Search our weather history database for the weather conditions in past years. The results will help you decide how hot, cold, wet, or windy it might be!

Date:

Astronomy

Aug. 03, 2013 Rise Set
Actual Time 6:40 AM CDT 8:39 PM CDT
Civil Twilight 6:12 AM CDT 9:08 PM CDT
Nautical Twilight 5:37 AM CDT 9:43 PM CDT
Astronomical Twilight 4:59 AM CDT 10:20 PM CDT
Moon 3:52 AM CDT (8/3) 6:22 PM CDT (8/3)
Length of Visible Light 14h 56m
Length of Day
13h 58m
Waning Crescent, 9% of the Moon is Illuminated
Aug 3
Waning Crescent
Aug 6
New
Aug 14
First Quarter
Aug 20
Full
Aug 28
Last Quarter

Hourly Weather History & Observations

Time (CDT) Temp. Heat Index Dew Point Humidity Pressure Visibility Wind Dir Wind Speed Gust Speed Precip Events Conditions
12:56 AM 79.0 °F - 69.1 °F 72% 29.84 in - NE 13.8 mph 19.6 mph N/A   Unknown
1:56 AM 78.1 °F - 73.0 °F 84% 29.85 in - ENE 15.0 mph 23.0 mph N/A   Unknown
2:56 AM 78.1 °F - 71.1 °F 79% 29.84 in - East 16.1 mph 28.8 mph N/A   Unknown
3:56 AM 78.1 °F - 69.1 °F 74% 29.83 in - ESE 8.1 mph - N/A   Unknown
4:56 AM 75.9 °F - 70.0 °F 82% 29.84 in - ESE 9.2 mph - N/A   Unknown
5:56 AM 75.9 °F - 68.0 °F 76% 29.84 in - SE 12.7 mph - N/A   Unknown
6:56 AM 75.0 °F - 68.0 °F 79% 29.85 in - SE 11.5 mph - N/A   Unknown
7:56 AM 75.0 °F - 68.0 °F 79% 29.86 in - SE 9.2 mph - N/A   Unknown
8:56 AM 79.0 °F - 69.1 °F 72% 29.88 in - SE 12.7 mph - N/A   Unknown
9:56 AM 82.0 °F 84.9 °F 68.0 °F 62% 29.90 in - SE 11.5 mph - N/A   Unknown
10:56 AM 84.0 °F 87.8 °F 69.1 °F 61% 29.91 in - ESE 8.1 mph - N/A   Unknown
11:56 AM 87.1 °F 91.3 °F 69.1 °F 55% 29.91 in - ESE 11.5 mph 19.6 mph N/A   Unknown
12:56 PM 86.0 °F 89.4 °F 68.0 °F 55% 29.91 in - SE 13.8 mph 23.0 mph N/A   Unknown
1:56 PM 88.0 °F 91.4 °F 68.0 °F 51% 29.90 in - SSE 10.4 mph - N/A   Unknown
2:56 PM 89.1 °F 91.3 °F 66.0 °F 46% 29.91 in - South 10.4 mph 17.3 mph N/A   Unknown
3:56 PM 91.9 °F 95.4 °F 66.9 °F 44% 29.90 in - East 8.1 mph 17.3 mph N/A   Unknown
4:56 PM 91.0 °F 94.3 °F 66.9 °F 45% 29.91 in - SE 8.1 mph - N/A   Unknown
5:56 PM 90.0 °F 96.9 °F 72.0 °F 55% 29.91 in - East 18.4 mph 25.3 mph N/A   Unknown
6:56 PM 87.1 °F 94.5 °F 73.0 °F 63% 29.92 in - East 15.0 mph 26.5 mph N/A   Unknown
7:56 PM 82.0 °F 87.4 °F 73.0 °F 74% 29.95 in - ENE 19.6 mph 24.2 mph N/A   Unknown
8:56 PM 79.0 °F - 73.0 °F 82% 29.97 in - East 12.7 mph 20.7 mph N/A   Unknown
9:56 PM 78.1 °F - 72.0 °F 81% 29.98 in - East 11.5 mph 21.9 mph N/A   Unknown
10:56 PM 77.0 °F - 72.0 °F 84% 30.00 in - ESE 8.1 mph - N/A   Unknown
11:56 PM 75.0 °F - 73.0 °F 94% 29.99 in - ESE 8.1 mph - 0.05 in   Unknown